Theta_e
335 340 346 346 344 342 342 343 342 340 337 337 335 334 332 331 331 330 330 329 329 329 330 331 331 331 331 331 330 329 329 329 329 330 332 333 337 339 342 343 343 341 342
337 342 344 346 345 346 345 343 342 340 336 334 332 331 330 329 328 328 328 328 327 329 330 330 330 330 329 328 328 328 328 328 328 328 328 328 329 332 338 341 342 340 342
338 342 343 345 347 347 346 343 340 337 333 332 330 329 328 327 326 327 327 326 327 327 329 329 329 329 327 327 326 326 326 326 326 326 326 325 324 326 332 336 340 342 342
339 341 343 342 346 346 343 340 337 334 331 329 328 327 325 324 325 326 326 326 326 327 327 328 328 327 326 325 325 325 325 325 324 324 322 321 321 323 327 332 337 341 340
339 340 340 342 345 344 340 338 334 330 328 327 325 324 323 324 324 325 325 324 324 325 326 326 325 324 324 324 324 325 323 323 322 321 319 319 318 319 323 326 330 335 337
338 339 341 342 342 339 337 335 331 328 326 324 323 324 324 324 323 323 323 323 323 324 324 324 325 325 323 322 323 323 325 325 323 320 319 318 318 320 323 324 325 329 335
337 340 340 339 339 337 334 331 328 325 322 321 322 322 322 322 322 322 322 321 322 322 322 323 323 322 323 323 324 325 324 323 323 321 320 319 318 320 324 324 325 325 330
335 335 334 329 332 333 331 327 324 321 320 321 322 321 321 322 321 321 320 321 321 322 322 322 323 323 322 322 323 323 322 321 320 319 319 319 319 322 324 325 325 326 327
333 331 329 327 325 325 326 325 321 318 319 320 320 320 319 319 319 318 317 319 321 320 321 321 324 323 323 322 322 322 320 320 318 318 317 318 319 325 325 325 325 327 326
328 327 325 322 319 318 318 318 317 317 318 318 318 316 315 314 315 314 315 317 319 319 321 322 323 322 322 321 320 319 318 317 317 318 318 317 321 326 326 326 326 327 326
325 323 321 318 316 314 313 309 310 312 313 313 313 313 312 312 312 312 312 315 317 318 319 321 321 321 319 317 317 317 316 316 317 318 318 320 324 327 328 327 327 326 326
323 321 319 316 312 311 308 309 309 310 311 311 312 312 312 311 311 311 310 311 313 314 315 319 320 318 316 316 316 315 316 315 317 318 320 321 325 327 328 327 327 325 326
324 322 319 315 311 308 308 309 309 309 310 312 311 311 311 310 310 310 311 312 313 311 313 315 317 316 316 316 316 315 315 315 316 319 319 319 323 328 328 327 327 326 327
323 321 318 313 309 307 308 307 308 310 310 311 311 311 310 309 309 309 311 312 313 314 315 316 316 316 316 316 315 315 314 315 315 317 318 316 320 327 328 330 328 328 327
320 320 316 311 308 307 307 308 308 309 310 310 310 310 310 309 309 310 311 313 314 316 315 315 315 315 316 315 315 314 314 314 314 313 315 314 317 322 326 330 331 330 327
312 316 311 307 306 307 307 308 309 310 310 310 309 309 310 309 309 310 312 314 315 316 315 315 315 314 314 314 313 314 314 313 313 314 315 315 315 318 321 326 330 332 330
310 308 306 305 306 307 307 308 309 309 308 308 308 309 309 310 310 310 312 313 314 316 315 315 315 315 314 313 312 313 314 313 313 314 315 316 316 317 318 321 325 328 331
305 304 306 306 307 307 308 309 308 307 307 307 307 308 309 310 311 312 313 313 315 316 315 314 314 313 314 313 311 312 313 313 313 314 314 315 316 318 318 318 319 322 326
306 306 306 306 305 306 308 308 307 307 307 307 307 308 309 310 312 314 313 314 315 316 315 313 313 312 312 312 311 311 311 312 313 312 313 314 315 316 317 317 316 317 321
302 303 304 305 305 306 307 307 308 308 308 307 306 307 309 310 311 313 314 314 314 314 314 314 312 313 312 311 309 309 311 312 313 312 313 313 314 316 316 317 318 318 318
297 299 299 301 303 305 306 305 306 306 306 307 307 307 308 310 311 313 313 313 314 313 313 313 312 311 311 310 310 310 311 311 312 312 313 313 314 314 315 315 318 318 319
293 295 296 298 300 302 304 305 306 306 307 307 308 310 311 311 312 313 313 313 313 313 313 312 312 310 311 309 307 306 305 309 312 311 312 312 313 314 313 313 314 315 317
291 293 294 295 296 298 302 306 306 307 308 308 308 309 307 307 306 309 311 312 312 314 312 312 312 311 309 311 308 306 302 300 305 311 311 311 312 313 313 312 313 315 316
289 291 293 292 294 297 299 303 304 302 301 301 303 303 304 303 302 305 307 307 307 308 308 311 313 311 311 308 309 309 307 306 301 301 310 311 313 311 313 314 314 314 314
289 289 290 291 292 294 296 297 298 297 298 298 299 298 299 299 299 301 302 301 301 302 304 303 304 304 307 307 308 307 306 307 304 302 300 305 310 312 313 313 311 312 312
288 288 289 289 289 291 292 293 294 293 294 293 294 294 295 296 296 297 298 298 297 297 299 300 300 300 302 301 302 302 303 302 302 302 301 301 302 308 311 313 312 310 311
Wind_Speed
3 7 12 11 10 9 9 13 12 11 9 9 10 10 11 11 12 12 13 13 14 13 13 13 12 12 12 12 12 12 12 12 12 13 15 15 13 13 14 12 8 10 10
11 9 13 11 9 8 11 10 13 12 8 8 9 10 11 11 12 13 13 14 13 14 14 13 13 13 12 13 13 13 13 13 13 13 13 14 14 16 15 14 11 11 12
13 9 11 11 9 8 11 11 12 12 8 9 10 11 11 12 13 13 13 13 14 13 13 13 13 13 13 13 14 14 14 14 14 14 14 9 11 16 18 16 16 14 14
10 8 8 9 11 14 12 13 13 11 9 9 10 10 10 12 12 13 13 13 13 13 14 14 14 14 14 14 14 14 14 15 14 15 9 9 10 16 18 18 18 16 16
8 5 6 10 13 13 12 16 12 9 9 9 10 10 11 10 10 11 12 13 13 13 14 14 14 14 14 14 14 15 15 15 14 10 10 10 10 12 18 19 19 19 16
4 4 10 13 15 14 13 13 10 9 10 10 9 10 10 11 10 12 12 12 13 13 14 13 13 13 13 13 14 14 14 15 15 10 10 11 11 14 17 18 19 21 19
6 9 11 14 14 13 15 12 10 9 10 9 10 11 11 11 11 12 12 13 12 12 12 13 13 14 14 14 15 16 16 16 11 10 10 10 10 15 16 16 15 17 21
10 10 10 11 12 15 11 11 10 9 10 10 10 12 12 11 11 11 13 13 12 12 12 13 13 13 14 14 15 16 15 14 10 10 11 9 12 16 16 17 17 16 19
9 9 8 8 9 15 12 11 9 9 10 9 10 11 11 11 11 10 11 12 12 12 12 13 13 16 14 13 13 14 14 14 10 8 10 7 14 17 17 17 17 18 17
7 7 6 6 7 8 7 10 8 10 9 9 10 11 10 9 10 10 9 11 12 12 12 13 14 13 13 14 13 12 13 12 9 8 6 7 17 17 17 17 15 17 17
6 5 5 6 7 7 6 6 7 8 8 8 7 9 7 5 6 7 8 11 11 12 13 13 13 14 13 12 13 12 10 5 7 6 5 12 18 19 18 19 19 14 15
4 4 5 5 5 5 5 5 5 4 4 4 5 6 5 6 6 6 7 10 11 11 11 13 13 12 10 7 7 8 5 7 5 6 6 17 21 22 21 17 17 15 16
4 4 5 4 4 4 5 3 2 3 3 3 6 5 5 4 4 4 4 4 5 7 6 7 8 6 9 8 7 6 6 6 5 5 8 18 21 21 21 15 15 13 17
4 6 6 5 5 4 4 4 3 3 3 3 4 6 5 4 5 4 4 5 4 4 7 7 5 8 9 9 8 8 7 6 5 5 8 17 20 20 20 19 15 13 8
3 5 7 5 5 3 5 4 4 4 4 4 4 6 4 4 5 4 4 4 4 5 6 7 8 8 9 9 8 7 8 8 8 6 6 15 18 18 20 22 20 9 4
1 6 7 5 6 4 5 5 4 4 4 4 4 5 5 4 4 4 4 4 5 6 6 7 8 8 7 8 8 6 7 7 7 8 7 8 16 17 17 18 22 19 8
8 8 7 7 6 6 6 5 5 5 4 5 5 6 6 5 5 4 4 4 4 6 8 7 9 8 8 8 9 6 5 6 8 8 8 7 8 11 15 18 17 20 15
12 10 8 7 7 6 5 5 5 5 5 4 5 5 7 7 6 4 4 4 5 5 6 7 8 8 8 9 9 7 5 5 8 9 8 8 8 8 10 17 18 17 16
12 10 10 9 7 5 6 5 6 6 5 5 5 5 7 7 6 4 4 5 6 4 6 7 8 7 9 11 10 7 5 4 6 7 10 11 12 9 8 13 12 12 17
13 11 11 8 9 5 4 4 4 5 5 5 5 6 7 6 7 5 5 6 6 5 6 6 7 8 6 10 9 7 4 4 4 6 8 8 12 12 9 11 9 8 11
13 13 12 11 11 7 3 2 3 3 3 5 5 7 7 7 8 7 6 6 6 5 6 7 4 6 5 10 8 6 4 3 6 4 6 8 12 11 11 8 7 6 7
11 11 11 11 11 8 3 2 2 1 2 2 3 7 9 10 11 9 9 8 8 7 9 9 8 5 3 6 7 3 6 4 9 4 7 7 12 9 10 9 9 9 8
11 11 10 9 10 9 8 3 3 3 3 5 6 6 10 11 12 11 11 9 9 8 7 8 9 9 5 4 6 4 4 4 9 4 9 7 12 9 10 8 9 9 10
9 8 9 9 10 10 10 8 10 7 5 5 6 6 7 12 13 12 12 12 10 8 11 9 8 8 7 7 2 3 1 3 4 7 8 8 9 11 13 9 9 9 10
9 8 7 10 12 12 11 10 7 8 5 5 5 8 10 9 12 13 13 12 12 9 11 13 12 12 9 9 6 4 2 3 2 3 9 13 9 7 8 10 7 7 11
6 7 9 11 11 11 11 11 11 11 8 7 9 8 8 8 8 14 14 12 11 11 12 10 11 14 12 11 9 9 10 7 9 6 6 10 10 11 8 7 7 7 11
Wind_Direction
168 168 131 131 131 127 114 107 97 74 60 57 51 47 40 31 30 26 21 15 9 4 1 357 355 353 352 349 344 339 335 334 334 329 324 329 328 320 318 314 265 242 225
144 163 138 142 149 137 124 115 100 86 73 56 50 42 40 29 24 21 16 11 6 3 360 358 354 352 350 346 341 335 331 328 324 323 323 324 323 322 309 306 294 257 239
141 154 148 157 147 125 122 101 85 83 66 54 45 37 30 25 19 18 13 8 5 0 356 350 346 343 345 344 338 332 329 326 325 323 320 315 319 316 313 300 298 270 241
143 155 167 166 140 118 110 99 79 74 62 54 45 36 30 20 19 17 15 8 3 358 348 344 345 346 347 342 336 333 331 329 325 321 331 322 316 308 303 296 294 288 256
145 172 139 122 112 106 101 87 74 66 57 47 42 31 24 23 20 18 13 5 0 357 359 358 357 354 349 344 342 338 331 331 330 334 319 312 310 306 303 295 290 296 294
99 104 116 102 95 89 81 83 85 69 59 44 36 33 24 21 16 15 8 2 355 354 355 359 358 352 345 339 340 339 339 335 327 319 310 305 302 304 303 304 290 284 288
82 82 87 83 86 91 77 80 76 68 58 43 29 28 23 16 19 14 7 358 351 354 352 357 353 358 351 347 342 347 344 341 328 315 311 307 302 301 296 292 295 281 279
97 89 88 84 89 79 80 74 71 63 56 42 28 24 21 23 16 13 9 2 3 1 359 6 1 346 351 350 345 344 342 338 334 324 323 313 302 301 297 294 290 281 265
83 91 90 90 85 79 76 67 60 59 56 43 33 27 23 21 16 12 8 358 359 3 2 2 358 3 355 348 346 346 341 337 333 331 326 322 316 307 299 297 297 289 273
77 77 88 92 81 89 78 68 53 51 50 45 37 33 22 19 13 7 2 355 358 1 359 356 2 357 352 349 342 344 340 334 340 333 326 321 320 312 306 300 287 285 276
88 80 70 78 88 91 86 60 46 44 41 36 34 30 25 17 5 1 357 359 360 0 2 2 358 356 351 348 346 345 340 345 337 331 319 321 322 326 315 302 302 284 274
116 91 92 86 93 95 86 68 56 46 35 34 27 31 26 14 7 1 358 356 357 2 360 359 354 349 348 347 346 350 352 345 335 331 328 334 327 339 329 307 311 292 278
122 116 100 101 91 90 93 80 57 39 31 29 27 27 30 28 11 11 359 356 356 2 4 356 347 351 345 348 348 350 345 349 331 333 336 342 338 343 346 327 304 296 295
150 132 106 106 92 72 79 77 62 53 31 25 24 24 19 21 23 18 1 347 359 6 1 356 343 338 343 346 340 351 355 353 342 337 339 342 345 346 342 331 302 290 288
179 128 112 109 90 78 75 70 55 47 34 26 29 24 31 30 29 4 356 346 9 8 10 356 347 342 344 339 344 347 357 1 359 350 338 338 346 348 347 345 341 342 351
10 105 106 95 92 84 75 65 62 48 29 32 27 20 35 28 23 19 351 355 5 9 5 355 351 345 338 341 345 334 350 6 4 359 347 339 347 351 351 353 355 355 49
76 93 90 87 78 74 67 67 62 46 36 36 25 25 25 21 16 4 355 352 341 8 3 1 360 353 347 348 342 337 328 356 3 3 2 355 342 344 356 358 0 356 346
63 59 57 68 74 73 71 71 64 49 43 36 30 21 19 12 7 360 356 357 340 7 6 1 3 357 358 355 343 343 326 335 353 3 4 5 3 353 346 359 360 355 357
53 54 52 41 44 64 72 67 62 57 45 34 32 23 17 10 359 6 2 355 349 350 10 7 2 5 358 354 348 343 346 343 343 348 360 1 359 7 354 341 344 353 348
42 45 47 43 33 37 64 69 57 52 46 37 31 25 20 16 6 10 5 5 1 2 4 2 360 357 356 349 342 350 3 14 353 356 348 357 3 354 359 359 344 342 338
34 35 33 36 21 27 45 49 41 40 18 36 29 24 20 19 12 12 5 3 358 3 5 7 345 342 360 353 343 357 340 19 8 350 350 357 357 358 348 351 356 339 332
31 26 30 28 28 19 21 43 67 70 45 43 18 34 30 31 24 21 17 11 7 358 7 4 13 349 335 12 2 325 349 340 358 338 353 355 355 350 351 345 341 346 342
35 27 29 20 27 24 12 39 57 55 43 43 31 33 33 31 27 18 23 19 13 13 12 5 4 9 357 354 28 15 340 354 323 337 348 346 349 353 350 346 341 353 353
27 27 30 28 30 28 17 41 56 58 58 24 31 37 38 29 26 26 27 24 20 18 14 9 12 9 2 12 331 9 265 280 318 323 346 350 346 351 351 351 352 355 359
32 25 30 42 36 29 33 39 51 60 50 41 36 41 35 30 29 25 28 24 22 19 16 24 19 21 16 16 3 345 330 308 314 297 330 340 342 344 350 347 344 358 4
33 28 43 51 43 38 41 41 54 56 50 46 34 34 29 27 23 25 30 25 24 22 19 24 21 27 21 27 18 11 14 7 351 345 329 342 328 335 336 350 357 357 358